• In Belarus
  • List of Countries
  • For 7 days
  • Water Temperature
  • Satellite Maps
  • Weather Map
  • Weather Widgets
  • user-avatar
    Login

    Hourly Weather Maun

    Today, 20 October, Friday

    Time Temperature Precipitation Wind Pressure Humidity
    00:00 +31°C° 0 mm 2 mps 679 mmHg 13%
    01:00 +30°C° 0 mm 2 mps 679 mmHg 13%
    02:00 +29°C° 0 mm 2 mps 679 mmHg 13%
    03:00 +28°C° 0 mm 2 mps 679 mmHg 13%
    04:00 +27°C° 0 mm 2 mps 679 mmHg 13%
    05:00 +27°C° 0 mm 3 mps 679 mmHg 13%
    06:00 +28°C° 0 mm 3 mps 680 mmHg 12%
    07:00 +30°C° 0 mm 3 mps 680 mmHg 11%
    08:00 +32°C° 0 mm 4 mps 681 mmHg 10%
    09:00 +35°C° 0 mm 4 mps 681 mmHg 10%
    10:00 +38°C° 0 mm 4 mps 682 mmHg 11%
    11:00 +40°C° 0 mm 3 mps 682 mmHg 11%
    12:00 +42°C° 0 mm 3 mps 681 mmHg 11%
    13:00 +43°C° 0 mm 3 mps 681 mmHg 11%
    14:00 +43°C° 0 mm 3 mps 680 mmHg 11%
    15:00 +43°C° 0 mm 3 mps 680 mmHg 12%
    16:00 +42°C° 0 mm 3 mps 679 mmHg 13%
    17:00 +40°C° 0 mm 3 mps 679 mmHg 13%
    18:00 +38°C° 0.3 mm 4 mps 680 mmHg 18%
    19:00 +35°C° 0.3 mm 4 mps 680 mmHg 23%
    20:00 +33°C° 0.3 mm 4 mps 680 mmHg 27%
    21:00 +31°C° 0.3 mm 3 mps 681 mmHg 30%
    22:00 +31°C° 0.3 mm 3 mps 682 mmHg 33%
    23:00 +30°C° 0.3 mm 3 mps 682 mmHg 36%

    Tomorrow, 21 October, Saturday

    Time Temperature Precipitation Wind Pressure Humidity
    00:00 +29°C° 0.2 mm 3 mps 682 mmHg 37%
    01:00 +29°C° 0.2 mm 4 mps 682 mmHg 38%
    02:00 +29°C° 0.2 mm 5 mps 681 mmHg 39%
    03:00 +28°C° 0.1 mm 4 mps 681 mmHg 41%
    04:00 +28°C° 0.1 mm 4 mps 681 mmHg 42%
    05:00 +27°C° 0.1 mm 4 mps 681 mmHg 43%
    06:00 +28°C° 0 mm 4 mps 681 mmHg 41%
    07:00 +29°C° 0 mm 3 mps 682 mmHg 39%
    08:00 +30°C° 0 mm 3 mps 683 mmHg 37%
    09:00 +33°C° 0.1 mm 3 mps 683 mmHg 33%
    10:00 +34°C° 0.1 mm 4 mps 683 mmHg 29%
    11:00 +36°C° 0.1 mm 4 mps 683 mmHg 25%
    12:00 +37°C° 0 mm 4 mps 683 mmHg 23%
    13:00 +39°C° 0 mm 5 mps 682 mmHg 21%
    14:00 +40°C° 0 mm 5 mps 682 mmHg 18%
    15:00 +40°C° 0 mm 4 mps 681 mmHg 18%
    16:00 +38°C° 0 mm 4 mps 681 mmHg 18%
    17:00 +38°C° 0 mm 4 mps 681 mmHg 18%
    18:00 +37°C° 0 mm 3 mps 681 mmHg 20%
    19:00 +35°C° 0 mm 3 mps 681 mmHg 22%
    20:00 +34°C° 0 mm 2 mps 682 mmHg 25%
    21:00 +33°C° 0 mm 3 mps 682 mmHg 28%
    22:00 +31°C° 0 mm 3 mps 682 mmHg 31%
    23:00 +32°C° 0 mm 4 mps 683 mmHg 34%

    Day after tomorrow, 22 October, Sunday

    Time Temperature Precipitation Wind Pressure Humidity
    00:00 +30°C° 0 mm 4 mps 682 mmHg 37%
    01:00 +29°C° 0 mm 4 mps 682 mmHg 39%
    02:00 +29°C° 0 mm 4 mps 682 mmHg 41%
    03:00 +28°C° 0 mm 4 mps 682 mmHg 44%
    04:00 +28°C° 0 mm 4 mps 682 mmHg 46%
    05:00 +27°C° 0 mm 4 mps 682 mmHg 49%
    06:00 +28°C° 0.3 mm 5 mps 683 mmHg 47%
    07:00 +28°C° 0.3 mm 5 mps 683 mmHg 46%
    08:00 +29°C° 0.3 mm 5 mps 684 mmHg 44%
    09:00 +32°C° 0 mm 5 mps 684 mmHg 40%
    10:00 +34°C° 0 mm 5 mps 684 mmHg 35%
    11:00 +36°C° 0 mm 5 mps 685 mmHg 30%
    12:00 +37°C° 0 mm 5 mps 684 mmHg 27%
    13:00 +38°C° 0 mm 4 mps 683 mmHg 23%
    14:00 +40°C° 0 mm 3 mps 683 mmHg 20%
    15:00 +39°C° 0 mm 3 mps 682 mmHg 20%
    16:00 +39°C° 0 mm 3 mps 682 mmHg 19%
    17:00 +39°C° 0 mm 2 mps 682 mmHg 19%
    18:00 +37°C° 0.1 mm 2 mps 682 mmHg 22%
    19:00 +36°C° 0.1 mm 2 mps 682 mmHg 26%
    20:00 +34°C° 0.1 mm 2 mps 682 mmHg 30%
    21:00 +32°C° 0.1 mm 2 mps 682 mmHg 32%
    22:00 +31°C° 0.1 mm 1 mps 682 mmHg 34%
    23:00 +31°C° 0.1 mm 1 mps 682 mmHg 36%

    23 October, Monday

    Time Temperature Precipitation Wind Pressure Humidity
    00:00 +30°C° 0 mm 1 mps 681 mmHg 38%
    01:00 +30°C° 0 mm 1 mps 681 mmHg 39%
    02:00 +29°C° 0 mm 2 mps 680 mmHg 40%
    03:00 +29°C° 0 mm 2 mps 680 mmHg 41%
    04:00 +28°C° 0 mm 2 mps 680 mmHg 41%
    05:00 +28°C° 0 mm 2 mps 680 mmHg 42%
    06:00 +29°C° 0 mm 3 mps 681 mmHg 38%
    07:00 +30°C° 0 mm 3 mps 682 mmHg 34%
    08:00 +32°C° 0 mm 4 mps 683 mmHg 30%
    09:00 +34°C° 0.1 mm 3 mps 683 mmHg 27%
    10:00 +36°C° 0.1 mm 3 mps 684 mmHg 24%
    11:00 +38°C° 0.1 mm 2 mps 684 mmHg 20%
    12:00 +38°C° 0 mm 2 mps 683 mmHg 20%
    13:00 +37°C° 0 mm 1 mps 682 mmHg 19%
    14:00 +37°C° 0 mm 1 mps 681 mmHg 19%
    15:00 +37°C° 0 mm 1 mps 681 mmHg 20%
    16:00 +36°C° 0 mm 1 mps 681 mmHg 20%
    17:00 +37°C° 0 mm 2 mps 680 mmHg 21%
    18:00 +36°C° 0 mm 2 mps 681 mmHg 23%
    19:00 +35°C° 0 mm 2 mps 681 mmHg 26%
    20:00 +34°C° 0 mm 2 mps 681 mmHg 28%
    21:00 +32°C° 0.1 mm 2 mps 681 mmHg 30%
    22:00 +31°C° 0.1 mm 2 mps 681 mmHg 31%
    23:00 +31°C° 0.1 mm 2 mps 681 mmHg 33%

    24 October, Tuesday

    Time Temperature Precipitation Wind Pressure Humidity
    00:00 +30°C° 0 mm 2 mps 681 mmHg 35%
    01:00 +29°C° 0 mm 2 mps 680 mmHg 36%
    02:00 +29°C° 0 mm 1 mps 680 mmHg 38%
    03:00 +28°C° 0 mm 1 mps 680 mmHg 38%
    04:00 +28°C° 0 mm 1 mps 680 mmHg 38%
    05:00 +27°C° 0 mm 1 mps 680 mmHg 39%
    06:00 +29°C° 0 mm 2 mps 681 mmHg 35%
    07:00 +31°C° 0 mm 2 mps 681 mmHg 32%
    08:00 +33°C° 0 mm 3 mps 682 mmHg 28%
    09:00 +35°C° 0 mm 2 mps 682 mmHg 24%
    10:00 +38°C° 0 mm 2 mps 682 mmHg 21%
    11:00 +40°C° 0 mm 2 mps 682 mmHg 17%
    12:00 +40°C° 0 mm 1 mps 682 mmHg 16%
    13:00 +41°C° 0 mm 1 mps 681 mmHg 15%
    14:00 +42°C° 0 mm 1 mps 680 mmHg 13%
    15:00 +41°C° 0 mm 1 mps 680 mmHg 14%
    16:00 +40°C° 0 mm 2 mps 680 mmHg 14%
    17:00 +39°C° 0 mm 2 mps 679 mmHg 15%
    18:00 +38°C° 0 mm 2 mps 680 mmHg 16%
    19:00 +36°C° 0 mm 1 mps 680 mmHg 17%
    20:00 +35°C° 0 mm 1 mps 680 mmHg 19%
    21:00 +35°C° 0 mm 2 mps 680 mmHg 20%
    22:00 +34°C° 0 mm 2 mps 680 mmHg 21%
    23:00 +34°C° 0 mm 2 mps 680 mmHg 22%

    25 October, Wednesday

    Time Temperature Precipitation Wind Pressure Humidity
    00:00 +32°C° 0 mm 2 mps 680 mmHg 23%
    01:00 +31°C° 0 mm 2 mps 679 mmHg 24%
    02:00 +31°C° 0 mm 2 mps 679 mmHg 25%
    03:00 +30°C° 0 mm 2 mps 679 mmHg 25%
    04:00 +30°C° 0 mm 2 mps 679 mmHg 26%
    05:00 +29°C° 0 mm 2 mps 679 mmHg 27%
    06:00 +31°C° 0 mm 2 mps 680 mmHg 24%
    07:00 +32°C° 0 mm 2 mps 680 mmHg 21%
    08:00 +35°C° 0 mm 2 mps 681 mmHg 19%
    09:00 +37°C° 0 mm 3 mps 681 mmHg 17%
    10:00 +39°C° 0 mm 3 mps 681 mmHg 15%
    11:00 +42°C° 0 mm 3 mps 681 mmHg 13%
    12:00 +43°C° 0 mm 3 mps 680 mmHg 12%
    13:00 +42°C° 0 mm 2 mps 680 mmHg 12%
    14:00 +42°C° 0 mm 2 mps 679 mmHg 11%
    15:00 +42°C° 0 mm 2 mps 679 mmHg 11%
    16:00 +41°C° 0 mm 2 mps 679 mmHg 12%
    17:00 +41°C° 0 mm 2 mps 678 mmHg 12%
    18:00 +39°C° 0 mm 2 mps 678 mmHg 14%
    19:00 +37°C° 0 mm 2 mps 678 mmHg 15%
    20:00 +36°C° 0 mm 2 mps 678 mmHg 17%
    21:00 +35°C° 0 mm 2 mps 678 mmHg 18%
    22:00 +33°C° 0 mm 1 mps 678 mmHg 19%
    23:00 +33°C° 0 mm 1 mps 678 mmHg 20%
    Show more